Tracking 28790 objects as of 19-Apr-2024
HD Live streaming from Space Station
objects crossing your sky now

IRIDIUM 33 DEB

Track IRIDIUM 33 DEB now!
10-day predictions


NORAD ID: 38017
Int'l Code: 1997-051YD
Perigee: 717.4 km
Apogee: 949.5 km
Inclination: 86.3 °
Period: 101.4 minutes
Semi major axis: 7204 km
RCS: 0.0021 m2 (small)
Launch date: September 14, 1997
Source: United States (US)
Launch site: TYURATAM MISSILE AND SPACE COMPLEX (TTMTR)

Note: This is SATELLITE DEBRIS
Your satellite tracking list
Your tracking list is empty




NASA's NSSDC Master Catalog

Two Line Element Set (TLE):
1 38017U 97051YD  24109.13475090  .00028440  00000-0  11768-1 0  9998
2 38017  86.3379  63.0158 0161063 272.2241  86.0513 14.19712424527469
Source of the keplerian elements: AFSPC